Location: Steilacoom
(47.1700°N, 122.5700°W)
Time: 15:13:18
(UTC-08:00)

LilacSat-2 - Visible Passes

Search period start: 28 January 2020 00:00
Search period end: 07 February 2020 00:00
Orbit: 512 x 536 km, 97.5° (Epoch: 28 January)

Date Brightness Start Highest point End Pass type
(mag) Time Alt. Az. Time Alt. Az. Time Alt. Az.
28 Jan ? 04:58:08 10° ENE 04:59:58 13° E 05:01:48 10° ESE visible
28 Jan ? 06:30:51 10° N 06:34:31 52° WNW 06:38:10 10° SSW visible
29 Jan ? 06:18:33 10° N 06:22:19 73° WNW 06:26:03 10° SSW visible
30 Jan ? 06:06:18 10° NNE 06:10:05 80° ESE 06:13:50 10° S visible
30 Jan ? 18:27:07 10° WSW 18:28:40 12° W 18:30:15 10° WNW visible
31 Jan ? 05:54:07 10° NNE 05:57:50 56° E 06:01:31 10° S visible
31 Jan ? 18:13:51 10° SW 18:16:19 16° W 18:18:47 10° NW visible
01 Feb ? 05:41:59 10° NNE 05:45:33 40° E 05:49:06 10° S visible
01 Feb ? 18:00:59 10° SW 18:03:59 22° W 18:06:59 10° NW visible
02 Feb ? 05:29:56 10° NE 05:33:16 29° E 05:36:34 10° SSE visible
02 Feb ? 17:48:18 10° SSW 17:51:40 29° W 17:55:02 10° NW visible
03 Feb ? 05:17:58 10° NE 05:20:56 22° E 05:23:53 10° SE visible
03 Feb ? 06:51:52 10° N 06:55:13 30° WNW 06:58:32 10° SW visible
04 Feb ? 05:06:10 10° NE 05:08:36 16° E 05:11:00 10° SE visible
04 Feb ? 06:39:29 10° N 06:43:02 41° WNW 06:46:34 10° SW visible
05 Feb ? 04:54:43 10° ENE 04:56:14 12° E 04:57:44 10° ESE visible
05 Feb ? 06:27:07 10° N 06:30:50 57° WNW 06:34:30 10° SSW visible
06 Feb ? 06:14:50 10° N 06:18:37 81° WNW 06:22:21 10° SSW visible
